BAW1PA EKCH-EKCH

Flight info

Callsign BAW1PA
Flight time N/A
Altitude 36000
Route LANGO DCT RAXLU DCT JUIST DCT ABNED L980 LOGAN
Aircraft A320/M-SDE3FGHIRWY/LB1

Departure

Time 2026-04-26 21:09
Airport Copenhagen Kastrup Airport (EKCH)

Arrival

Time N/A
Airport Copenhagen Kastrup Airport (EKCH)
Time Latitude Longitude Altitude Speed Heading
2026-04-26 21:09 55.43263 12.43176 3001 ft 262 kts 283°
2026-04-26 21:09 55.44098 12.40502 3003 ft 246 kts 318°
2026-04-26 21:09 55.45610 12.39371 3002 ft 236 kts 356°
2026-04-26 21:09 55.47120 12.40185 3002 ft 228 kts 37°
2026-04-26 21:10 55.47949 12.42454 3011 ft 219 kts 70°
2026-04-26 21:10 55.48513 12.44886 2998 ft 210 kts 47°
2026-04-26 21:10 55.49517 12.46691 2907 ft 203 kts 38°
2026-04-26 21:10 55.50564 12.48309 2623 ft 198 kts 37°
2026-04-26 21:11 55.51600 12.49892 2358 ft 196 kts 37°
2026-04-26 21:11 55.52618 12.51455 2098 ft 193 kts 37°
2026-04-26 21:11 55.53616 12.52989 1829 ft 186 kts 37°
2026-04-26 21:11 55.54566 12.54452 1574 ft 177 kts 37°
2026-04-26 21:12 55.55466 12.55838 1360 ft 164 kts 37°
2026-04-26 21:12 55.56311 12.57139 1128 ft 159 kts 37°
2026-04-26 21:12 55.57133 12.58404 909 ft 155 kts 38°
2026-04-26 21:12 55.57933 12.59644 707 ft 152 kts 40°
2026-04-26 21:13 55.58725 12.60860 521 ft 148 kts 41°
2026-04-26 21:13 55.59491 12.62043 309 ft 144 kts 43°
2026-04-26 21:13 55.60239 12.63187 96 ft 141 kts 45°
2026-04-26 21:13 55.60958 12.64318 27 ft 132 kts 47°
2026-04-26 21:14 55.61430 12.65682 365 ft 141 kts 89°
2026-04-26 21:14 55.60842 12.67143 461 ft 177 kts 165°
2026-04-26 21:14 55.59563 12.66519 634 ft 221 kts 217°